sat.trackr.live / text

‹ back to catalog

VSP RF C1

NORAD 59136 · 2024-043AQ

PAYLOAD ACTIVE UNKNOWN

§ Identity

Operator
Country
BEL
Launch date
2024-03-04
Launch site
AFWTR
Launch vehicle
Mass (kg)
RCS (m²)

External: N2YO · Heavens-Above · Gunter

§ Orbital elements

Epoch: 2026-09-22T22:02:47.032224Z

Period
94.26 min
Inclination
97.5747°
Eccentricity
0.0001266
Mean motion
15.27742056 rev/d
Perigee alt
481.7 km
Apogee alt
483.4 km
Semi-major
6,860.7 km
B*
1.1253e-4
RAAN
45.4181°
Arg perigee
105.8856°
Mean anomaly
254.2523°
Rev number
14,201

§ Raw data

VSP RF C11 59136U 24043AQ  26265.91859991  .00002972  00000+0  11253-3 0  99932 59136  97.5747  45.4181 0001266 105.8856 254.2523 15.27742056142016

JSON: /api/v1/satellites/59136 · /tle

For live sub-satellite position, see the globe view (requires WebGL).

§ Visibility from observer

Set your observer location to see the next 7 days of passes ≥ 10°. The values pass through the URL so the page stays shareable.

No JS? Fill the form by hand. The geolocation button needs JavaScript.